sat.trackr.live / text

‹ back to catalog

GEESAT-1 09

NORAD 52793 · 2022-058J

PAYLOAD ACTIVE UNKNOWN

§ Identity

Operator
Country
PRC
Launch date
2022-06-02
Launch site
XICLF
Launch vehicle
Mass (kg)
RCS (m²)

External: N2YO · Heavens-Above · Gunter

§ Orbital elements

Epoch: 2026-09-20T22:03:06.938784Z

Period
95.93 min
Inclination
49.9965°
Eccentricity
0.0006776
Mean motion
15.01170467 rev/d
Perigee alt
558.6 km
Apogee alt
568.0 km
Semi-major
6,941.4 km
B*
2.0957e-4
RAAN
86.0098°
Arg perigee
185.4608°
Mean anomaly
174.6264°
Rev number
23,462

§ Raw data

GEESAT-1 091 52793U 22058J   26263.91883031  .00002455  00000+0  20957-3 0  99962 52793  49.9965  86.0098 0006776 185.4608 174.6264 15.01170467234628

JSON: /api/v1/satellites/52793 · /tle

For live sub-satellite position, see the globe view (requires WebGL).

§ Visibility from observer

Set your observer location to see the next 7 days of passes ≥ 10°. The values pass through the URL so the page stays shareable.

No JS? Fill the form by hand. The geolocation button needs JavaScript.